Location: *
(45.9500°N, 9.0833°E)
Time: 05:10:10
(UTC+00:00)

Cosmos 1066 Rocket - Pass Details

Date: 03 March 2021
Orbit: 799 x 894 km, 81.2° (Epoch: 18 April)

Event Time Altitude Azimuth Distance (km) Brightness Sun altitude
Rises 19:35:50 0° 347° (NNW) 3,440 7.8 -25.3°
Reaches altitude 10° 19:38:15 10° 347° (NNW) 2,513 7.0 -25.7°
Maximum altitude 19:43:59 79° 262° (W) 898 4.3 -26.7°
Enters shadow 19:45:42 48° 184° (S) 1,145 4.7 -26.9°
